DECAYED
Showing default

KAITUO 1A, 40904 (Decayed)

Orbit data source: Space-Track

KAITUO 1A, 40904 was a payload satellite owned by DFH Shenzhen (CN) in LEO that was launched on Sat, 19 Sep 2015 UTC via a CHANG ZHENG 6 launch vehicle from the Taiyaun Space Center, China (TSC). Payloads include a variety of satellites, spacecraft, and rockets equipped with specific instruments for various scientific and technological missions. These include communications satellites like Starlink; space stations such as the ISS; scientific satellites like the Hubble; Earth observation satellites from companies like Planet Labs, Umbra, and HawkEye 360; GPS; miniature CubeSats for education and research; and military/defense satellites.

Not visible in the next 10 days
KAITUO 1A details
Identifier
40904, 2015-049F
Orbit
Decayed
Last TLE update1 month ago
Origin
Flag of CNDFH Shenzhen (CN / PRC)
ManufacturerDFH Shenzhen
MissionDecayed Civil Technology
Bus & MotorUnknown
Mass130 kg wet, 130 kg dry
Launch date (UTC)
2015-09-19 (9 years ago)
Launch vehicle
CHANG ZHENG 6
Launch site
Taiyaun Space Center, China (TSC)
Object type
Payload
Rocket body
Debris
Shape & HBRBox, 1 m
Radar Cross Section1.500 m², Medium (>0.1 m² and < 1m²)

Expand to show TLE details & history

TLE from 1 month ago
0 KAITUO 1A
1 40904U 15049F   24317.71731501  .16110311  27416-5  24573-3 0  9991
2 40904  97.4358 343.2801 0007635 230.2557 129.8075 16.48327697507660
Epoch: 2024-11-12T17:12Z
Definitive object data (Epoch: 2024-11-12T17:12:56.016Z)
Latitude-0.00001°
Longitude32.72248°
Altitude150.195 km
Speed7.814 km/s
True Right ascension22h 53m 07s
True Declination0° 00' 00"
Sunlit
Object was in full shadow at TLE epoch
Visualization observer readout
Observer readout values are unavailable because the object's trajectory could not be propagated. This is usually caused when the trajectory data is faulty or the object's orbit has decayed.
Visualization observer readout
Observer readout values are unavailable because the object's trajectory could not be propagated. This is usually caused when the trajectory data is faulty or the object's orbit has decayed.
Orbital elements
Apogee altitude145.518 km
Perigee altitude135.564 km
Semi-major axis6,518.678 km
Eccentricity0.0007635
Inclination97.4358°
RAAN343.2801°
Arg. of periapsis230.2557°
True anomaly129.87467°
Mean anomaly129.8075°
Eccentric anomaly129.84109°
Mean motion4.12386 °/min
BSTAR0.00024573
Orbital period87.3 mins
Loading maneuver chart data...
Loading historical data...
Loading historical data...
Loading historical data...
Loading historical data...
Loading historical data...
Loading historical data...
Loading historical data...

KAITUO 1A Visibility forecast

Observer location: undefined°, undefined

This satellite is decayed
Span
Click to sort rows by Start time (UTC) header in descending order
Start Az.
Max El. time (UTC)
Max El. Az.
Max El.
End time (UTC)
End Az.
|